When you browse on this site, cookies collect data to enhance your experience and personalize the content and advertising you see.
Visit our Privacy Policy to learn more. By continuing to use the site, you agree to this use of cookies and data.
  • In United Kingdom
  • List of Countries
  • For 7 days
  • Water Temperature
  • Satellite Maps
  • Weather Map
  • Weather Widgets
  • user-avatar
    Login

    Hourly Weather Newcastle

    Today, 14 December, Friday

    Time Temperature Precipitation Wind Pressure Humidity
    00:00 +21°C° 0.5 mm 2 mps 749 mmHg 96%
    01:00 +21°C° 0.5 mm 3 mps 749 mmHg 96%
    02:00 +21°C° 0.1 mm 2 mps 749 mmHg 96%
    03:00 +20°C° 0.1 mm 2 mps 749 mmHg 96%
    04:00 +21°C° 0 mm 1 mps 749 mmHg 97%
    05:00 +22°C° 0 mm 1 mps 750 mmHg 93%
    06:00 +24°C° 0 mm 1 mps 750 mmHg 89%
    07:00 +25°C° 0 mm 1 mps 750 mmHg 86%
    08:00 +27°C° 0 mm 1 mps 750 mmHg 74%
    09:00 +30°C° 0 mm 1 mps 751 mmHg 63%
    10:00 +30°C° 0 mm 2 mps 751 mmHg 65%
    11:00 +30°C° 1.2 mm 2 mps 751 mmHg 66%
    12:00 +30°C° 1.2 mm 3 mps 751 mmHg 68%
    13:00 +30°C° 1.2 mm 3 mps 751 mmHg 70%
    14:00 +30°C° 0.9 mm 3 mps 751 mmHg 73%
    15:00 +29°C° 0.9 mm 3 mps 751 mmHg 76%
    16:00 +26°C° 0 mm 4 mps 751 mmHg 90%
    17:00 +25°C° 0.6 mm 3 mps 751 mmHg 92%
    18:00 +25°C° 0.6 mm 3 mps 752 mmHg 93%
    19:00 +24°C° 0.6 mm 3 mps 752 mmHg 95%
    20:00 +23°C° 0.6 mm 4 mps 752 mmHg 96%
    21:00 +22°C° 0.6 mm 4 mps 752 mmHg 96%
    22:00 +22°C° 0.6 mm 4 mps 753 mmHg 97%
    23:00 +22°C° 0.3 mm 5 mps 753 mmHg 96%

    Tomorrow, 15 December, Saturday

    Time Temperature Precipitation Wind Pressure Humidity
    00:00 +22°C° 0.3 mm 5 mps 753 mmHg 96%
    01:00 +22°C° 0.3 mm 5 mps 753 mmHg 96%
    02:00 +22°C° 0.1 mm 5 mps 753 mmHg 96%
    03:00 +22°C° 0.1 mm 5 mps 753 mmHg 96%
    04:00 +21°C° 0.1 mm 4 mps 753 mmHg 96%
    05:00 +23°C° 0 mm 5 mps 753 mmHg 92%
    06:00 +25°C° 0 mm 5 mps 754 mmHg 89%
    07:00 +26°C° 0 mm 5 mps 754 mmHg 85%
    08:00 +28°C° 0 mm 6 mps 754 mmHg 75%
    09:00 +30°C° 0 mm 7 mps 754 mmHg 65%
    10:00 +34°C° 0 mm 7 mps 754 mmHg 54%
    11:00 +33°C° 2.6 mm 7 mps 753 mmHg 60%
    12:00 +32°C° 2.6 mm 8 mps 753 mmHg 65%
    13:00 +32°C° 2.6 mm 8 mps 753 mmHg 70%
    14:00 +31°C° 1.9 mm 8 mps 752 mmHg 72%
    15:00 +31°C° 1.9 mm 8 mps 752 mmHg 74%
    16:00 +31°C° 1.9 mm 8 mps 752 mmHg 75%
    17:00 +28°C° 2.1 mm 8 mps 752 mmHg 79%
    18:00 +27°C° 2.1 mm 9 mps 753 mmHg 82%
    19:00 +26°C° 2.1 mm 9 mps 753 mmHg 85%
    20:00 +26°C° 0.5 mm 9 mps 753 mmHg 85%
    21:00 +26°C° 0.5 mm 9 mps 754 mmHg 86%
    22:00 +24°C° 0.5 mm 9 mps 755 mmHg 87%
    23:00 +24°C° 0.8 mm 8 mps 754 mmHg 89%

    Day after tomorrow, 16 December, Sunday

    Time Temperature Precipitation Wind Pressure Humidity
    00:00 +23°C° 0.8 mm 7 mps 754 mmHg 92%
    01:00 +22°C° 0.8 mm 6 mps 754 mmHg 94%
    02:00 +22°C° 0 mm 6 mps 754 mmHg 95%
    03:00 +22°C° 0 mm 6 mps 755 mmHg 95%
    04:00 +22°C° 0 mm 5 mps 755 mmHg 95%
    05:00 +23°C° 0 mm 5 mps 755 mmHg 90%
    06:00 +25°C° 0 mm 5 mps 755 mmHg 85%
    07:00 +26°C° 0 mm 5 mps 756 mmHg 79%
    08:00 +29°C° 0 mm 5 mps 756 mmHg 69%
    09:00 +32°C° 0 mm 5 mps 755 mmHg 60%
    10:00 +34°C° 0 mm 5 mps 755 mmHg 50%
    11:00 +34°C° 0 mm 6 mps 755 mmHg 48%
    12:00 +35°C° 0 mm 6 mps 754 mmHg 47%
    13:00 +35°C° 0 mm 7 mps 754 mmHg 46%
    14:00 +34°C° 1.4 mm 7 mps 754 mmHg 53%
    15:00 +33°C° 1.4 mm 7 mps 753 mmHg 59%
    16:00 +30°C° 1.4 mm 7 mps 753 mmHg 66%
    17:00 +29°C° 0.6 mm 7 mps 753 mmHg 71%
    18:00 +28°C° 0.6 mm 7 mps 754 mmHg 75%
    19:00 +27°C° 0.6 mm 7 mps 754 mmHg 80%
    20:00 +26°C° 0.3 mm 7 mps 754 mmHg 81%
    21:00 +26°C° 0.3 mm 7 mps 755 mmHg 83%
    22:00 +24°C° 0.3 mm 6 mps 755 mmHg 84%
    23:00 +24°C° 0 mm 6 mps 755 mmHg 85%

    17 December, Monday

    Time Temperature Precipitation Wind Pressure Humidity
    00:00 +23°C° 0 mm 5 mps 755 mmHg 86%
    01:00 +23°C° 0 mm 4 mps 754 mmHg 87%
    02:00 +22°C° 0 mm 4 mps 755 mmHg 88%
    03:00 +22°C° 0 mm 4 mps 755 mmHg 88%
    04:00 +21°C° 0 mm 4 mps 755 mmHg 89%
    05:00 +24°C° 0 mm 3 mps 755 mmHg 82%
    06:00 +25°C° 0 mm 3 mps 756 mmHg 74%
    07:00 +27°C° 0 mm 3 mps 756 mmHg 67%
    08:00 +30°C° 0 mm 3 mps 756 mmHg 58%
    09:00 +33°C° 0 mm 3 mps 756 mmHg 49%
    10:00 +36°C° 0 mm 3 mps 756 mmHg 39%
    11:00 +37°C° 0 mm 4 mps 756 mmHg 36%
    12:00 +38°C° 0 mm 4 mps 755 mmHg 33%
    13:00 +40°C° 0 mm 5 mps 755 mmHg 29%
    14:00 +37°C° 0 mm 5 mps 755 mmHg 36%
    15:00 +36°C° 0 mm 6 mps 754 mmHg 42%
    16:00 +34°C° 0 mm 6 mps 754 mmHg 48%
    17:00 +33°C° 0 mm 6 mps 755 mmHg 55%
    18:00 +30°C° 0 mm 6 mps 755 mmHg 63%
    19:00 +29°C° 0 mm 6 mps 756 mmHg 70%
    20:00 +28°C° 0 mm 5 mps 756 mmHg 74%
    21:00 +27°C° 0 mm 5 mps 757 mmHg 79%
    22:00 +26°C° 0 mm 4 mps 757 mmHg 84%
    23:00 +25°C° 0 mm 4 mps 757 mmHg 86%

    18 December, Tuesday

    Time Temperature Precipitation Wind Pressure Humidity
    00:00 +25°C° 0 mm 3 mps 757 mmHg 88%
    01:00 +24°C° 0 mm 2 mps 756 mmHg 90%
    02:00 +24°C° 0 mm 3 mps 757 mmHg 91%
    03:00 +24°C° 0 mm 3 mps 757 mmHg 92%
    04:00 +24°C° 0 mm 3 mps 757 mmHg 93%
    05:00 +24°C° 0 mm 3 mps 758 mmHg 91%
    06:00 +23°C° 0 mm 4 mps 758 mmHg 90%
    07:00 +25°C° 0 mm 4 mps 759 mmHg 88%
    08:00 +27°C° 0 mm 4 mps 759 mmHg 79%
    09:00 +28°C° 0 mm 4 mps 759 mmHg 70%
    10:00 +30°C° 0 mm 4 mps 759 mmHg 61%
    11:00 +33°C° 0 mm 4 mps 758 mmHg 56%
    12:00 +34°C° 0 mm 4 mps 758 mmHg 50%
    13:00 +36°C° 0 mm 4 mps 758 mmHg 45%
    14:00 +35°C° 0 mm 4 mps 758 mmHg 50%
    15:00 +34°C° 0 mm 4 mps 757 mmHg 55%
    16:00 +32°C° 0 mm 4 mps 757 mmHg 60%
    17:00 +29°C° 0 mm 3 mps 758 mmHg 69%
    18:00 +27°C° 0 mm 3 mps 758 mmHg 79%
    19:00 +25°C° 0 mm 2 mps 759 mmHg 88%
    20:00 +25°C° 0 mm 2 mps 759 mmHg 91%
    21:00 +24°C° 0 mm 2 mps 760 mmHg 94%
    22:00 +24°C° 0 mm 2 mps 760 mmHg 97%
    23:00 +24°C° 0 mm 2 mps 760 mmHg 96%

    19 December, Wednesday

    Time Temperature Precipitation Wind Pressure Humidity
    00:00 +24°C° 0 mm 2 mps 760 mmHg 96%
    01:00 +24°C° 0 mm 3 mps 759 mmHg 95%
    02:00 +24°C° 0 mm 3 mps 759 mmHg 95%
    03:00 +24°C° 0 mm 3 mps 759 mmHg 95%
    04:00 +24°C° 0 mm 3 mps 759 mmHg 95%
    05:00 +24°C° 0 mm 2 mps 759 mmHg 93%
    06:00 +24°C° 0 mm 2 mps 760 mmHg 92%
    07:00 +24°C° 0 mm 2 mps 760 mmHg 91%
    08:00 +26°C° 0 mm 2 mps 760 mmHg 82%
    09:00 +28°C° 0 mm 2 mps 759 mmHg 74%
    10:00 +30°C° 0 mm 2 mps 759 mmHg 65%
    11:00 +32°C° 0 mm 2 mps 758 mmHg 60%
    12:00 +35°C° 0 mm 2 mps 758 mmHg 55%
    13:00 +36°C° 0 mm 3 mps 757 mmHg 50%
    14:00 +36°C° 0 mm 3 mps 757 mmHg 52%
    15:00 +35°C° 0 mm 4 mps 756 mmHg 54%
    16:00 +34°C° 0 mm 4 mps 756 mmHg 57%
    17:00 +32°C° 1 mm 4 mps 756 mmHg 67%
    18:00 +29°C° 1 mm 3 mps 756 mmHg 77%
    19:00 +27°C° 1 mm 3 mps 756 mmHg 87%
    20:00 +26°C° 0.6 mm 3 mps 756 mmHg 90%
    21:00 +25°C° 0.6 mm 4 mps 756 mmHg 92%
    22:00 +25°C° 0.6 mm 4 mps 756 mmHg 95%
    23:00 +25°C° 0.6 mm 4 mps 756 mmHg 95%
    Show more